sat.trackr.live / text

‹ back to catalog

STARLINK-4043

NORAD 52836 · 2022-062G

PAYLOAD ACTIVE UNKNOWN

§ Identity

Operator
Country
US
Launch date
2022-06-17
Launch site
AFETR
Launch vehicle
Mass (kg)
RCS (m²)

Purposes: comms

External: N2YO · Heavens-Above · Gunter

§ Orbital elements

Epoch: 2026-05-25T06:00:02.000160Z

Period
93.63 min
Inclination
53.2207°
Eccentricity
0.0001355
Mean motion
15.37986448 rev/d
Perigee alt
451.1 km
Apogee alt
453.0 km
Semi-major
6,830.2 km
B*
2.3158e-3
RAAN
44.8130°
Arg perigee
75.6058°
Mean anomaly
244.6779°
Rev number
584

§ Raw data

STARLINK-40431 52836U 22062G   26145.25002315  .00088442  00000+0  23158-2 0  99982 52836  53.2207  44.8130 0001355  75.6058 244.6779 15.37986448  5841

JSON: /api/v1/satellites/52836 · /tle

For live sub-satellite position, see the globe view (requires WebGL).

§ Visibility from observer

Set your observer location to see the next 7 days of passes ≥ 10°. The values pass through the URL so the page stays shareable.

No JS? Fill the form by hand. The geolocation button needs JavaScript.